Code,Group,Raw Phase,Phase,Time,Device,Record Type,Historic Glucose (mmol/L),Scan Glucose (mmol/L)
CGM008,Info,A,A,2020/10/09 15:35,FreeStyle Libre Pro,0,6.3,
CGM008,Info,A,A,2020/10/09 15:50,FreeStyle Libre Pro,0,6.5,
CGM008,Info,A,A,2020/10/09 16:05,FreeStyle Libre Pro,0,6.3,
CGM008,Info,A,A,2020/10/09 16:20,FreeStyle Libre Pro,0,6.2,
CGM008,Info,A,A,2020/10/09 16:35,FreeStyle Libre Pro,0,6.3,
CGM008,Info,A,A,2020/10/09 16:50,FreeStyle Libre Pro,0,6.1,
CGM008,Info,A,A,2020/10/09 17:05,FreeStyle Libre Pro,0,6.1,
CGM008,Info,A,A,2020/10/09 17:20,FreeStyle Libre Pro,0,6.5,
CGM008,Info,A,A,2020/10/09 17:35,FreeStyle Libre Pro,0,6.4,
CGM008,Info,A,A,2020/10/09 17:50,FreeStyle Libre Pro,0,6.2,
CGM008,Info,A,A,2020/10/09 18:05,FreeStyle Libre Pro,0,6.2,
CGM008,Info,A,A,2020/10/09 18:20,FreeStyle Libre Pro,0,5.9,
CGM008,Info,A,A,2020/10/09 18:35,FreeStyle Libre Pro,0,5.9,
CGM008,Info,A,A,2020/10/09 18:50,FreeStyle Libre Pro,0,6.1,
CGM008,Info,A,A,2020/10/09 19:05,FreeStyle Libre Pro,0,6.5,
CGM008,Info,A,A,2020/10/09 19:20,FreeStyle Libre Pro,0,6.9,
CGM008,Info,A,A,2020/10/09 19:35,FreeStyle Libre Pro,0,6.8,
CGM008,Info,A,A,2020/10/09 19:50,FreeStyle Libre Pro,0,6.3,
CGM008,Info,A,A,2020/10/09 20:05,FreeStyle Libre Pro,0,6.2,
CGM008,Info,A,A,2020/10/09 20:20,FreeStyle Libre Pro,0,6.2,
CGM008,Info,A,A,2020/10/09 20:35,FreeStyle Libre Pro,0,6.1,
CGM008,Info,A,A,2020/10/09 20:50,FreeStyle Libre Pro,0,6,
CGM008,Info,A,A,2020/10/09 21:05,FreeStyle Libre Pro,0,5.6,
CGM008,Info,A,A,2020/10/09 21:20,FreeStyle Libre Pro,0,5.1,
CGM008,Info,A,A,2020/10/09 21:35,FreeStyle Libre Pro,0,5.1,
CGM008,Info,A,A,2020/10/09 21:50,FreeStyle Libre Pro,0,5.2,
CGM008,Info,A,A,2020/10/09 22:05,FreeStyle Libre Pro,0,5,
CGM008,Info,A,A,2020/10/09 22:20,FreeStyle Libre Pro,0,4.8,
CGM008,Info,A,A,2020/10/09 22:35,FreeStyle Libre Pro,0,4.7,
CGM008,Info,A,A,2020/10/09 22:50,FreeStyle Libre Pro,0,4.7,
CGM008,Info,A,A,2020/10/09 23:05,FreeStyle Libre Pro,0,4.6,
CGM008,Info,A,A,2020/10/09 23:20,FreeStyle Libre Pro,0,4.4,
CGM008,Info,A,A,2020/10/09 23:35,FreeStyle Libre Pro,0,4.6,
CGM008,Info,A,A,2020/10/09 23:50,FreeStyle Libre Pro,0,4.8,
CGM008,Info,A,A,2020/10/10 00:05,FreeStyle Libre Pro,0,4.8,
CGM008,Info,A,A,2020/10/10 00:20,FreeStyle Libre Pro,0,4.9,
CGM008,Info,A,A,2020/10/10 00:35,FreeStyle Libre Pro,0,4.9,
CGM008,Info,A,A,2020/10/10 00:50,FreeStyle Libre Pro,0,4.9,
CGM008,Info,A,A,2020/10/10 01:05,FreeStyle Libre Pro,0,4.9,
CGM008,Info,A,A,2020/10/10 01:20,FreeStyle Libre Pro,0,4.9,
CGM008,Info,A,A,2020/10/10 01:35,FreeStyle Libre Pro,0,4.9,
CGM008,Info,A,A,2020/10/10 01:50,FreeStyle Libre Pro,0,4.8,
CGM008,Info,A,A,2020/10/10 02:05,FreeStyle Libre Pro,0,4.6,
CGM008,Info,A,A,2020/10/10 02:20,FreeStyle Libre Pro,0,4.5,
CGM008,Info,A,A,2020/10/10 02:35,FreeStyle Libre Pro,0,4.6,
CGM008,Info,A,A,2020/10/10 02:50,FreeStyle Libre Pro,0,4.8,
CGM008,Info,A,A,2020/10/10 03:05,FreeStyle Libre Pro,0,4.9,
CGM008,Info,A,A,2020/10/10 03:20,FreeStyle Libre Pro,0,4.8,
CGM008,Info,A,A,2020/10/10 03:35,FreeStyle Libre Pro,0,5.1,
CGM008,Info,A,A,2020/10/10 03:50,FreeStyle Libre Pro,0,4.9,
CGM008,Info,A,A,2020/10/10 04:05,FreeStyle Libre Pro,0,4.7,
CGM008,Info,A,A,2020/10/10 04:20,FreeStyle Libre Pro,0,4.7,
CGM008,Info,A,A,2020/10/10 04:35,FreeStyle Libre Pro,0,4.9,
CGM008,Info,A,A,2020/10/10 04:50,FreeStyle Libre Pro,0,4.7,
CGM008,Info,A,A,2020/10/10 05:05,FreeStyle Libre Pro,0,4.9,
CGM008,Info,A,A,2020/10/10 05:20,FreeStyle Libre Pro,0,5.8,
CGM008,Info,A,A,2020/10/10 05:35,FreeStyle Libre Pro,0,5.8,
CGM008,Info,A,A,2020/10/10 05:50,FreeStyle Libre Pro,0,5.4,
CGM008,Info,A,A,2020/10/10 06:05,FreeStyle Libre Pro,0,5.7,
CGM008,Info,A,A,2020/10/10 06:20,FreeStyle Libre Pro,0,6.3,
CGM008,Info,A,A,2020/10/10 06:35,FreeStyle Libre Pro,0,7.4,
CGM008,Info,A,A,2020/10/10 06:50,FreeStyle Libre Pro,0,7.7,
CGM008,Info,A,A,2020/10/10 07:05,FreeStyle Libre Pro,0,7,
CGM008,Info,A,A,2020/10/10 07:20,FreeStyle Libre Pro,0,6.9,
CGM008,Info,A,A,2020/10/10 07:35,FreeStyle Libre Pro,0,7.4,
CGM008,Info,A,A,2020/10/10 07:50,FreeStyle Libre Pro,0,7.4,
CGM008,Info,A,A,2020/10/10 08:05,FreeStyle Libre Pro,0,7.4,
CGM008,Info,A,A,2020/10/10 08:20,FreeStyle Libre Pro,0,8,
CGM008,Info,A,A,2020/10/10 08:35,FreeStyle Libre Pro,0,8.5,
CGM008,Info,A,A,2020/10/10 08:50,FreeStyle Libre Pro,0,8.6,
CGM008,Info,A,A,2020/10/10 09:05,FreeStyle Libre Pro,0,8.1,
CGM008,Info,A,A,2020/10/10 09:20,FreeStyle Libre Pro,0,7.2,
CGM008,Info,A,A,2020/10/10 09:35,FreeStyle Libre Pro,0,6.9,
CGM008,Info,A,A,2020/10/10 09:50,FreeStyle Libre Pro,0,7.3,
CGM008,Info,A,A,2020/10/10 10:05,FreeStyle Libre Pro,0,7.8,
CGM008,Info,A,A,2020/10/10 10:20,FreeStyle Libre Pro,0,7.9,
CGM008,Info,A,A,2020/10/10 10:35,FreeStyle Libre Pro,0,8.2,
CGM008,Info,A,A,2020/10/10 10:50,FreeStyle Libre Pro,0,8.4,
CGM008,Info,A,A,2020/10/10 11:05,FreeStyle Libre Pro,0,8.2,
CGM008,Info,A,A,2020/10/10 11:20,FreeStyle Libre Pro,0,7.1,
CGM008,Info,A,A,2020/10/10 11:35,FreeStyle Libre Pro,0,6.8,
CGM008,Info,A,A,2020/10/10 11:50,FreeStyle Libre Pro,0,7.2,
CGM008,Info,A,A,2020/10/10 12:05,FreeStyle Libre Pro,0,6.4,
CGM008,Info,A,A,2020/10/10 12:20,FreeStyle Libre Pro,0,5.9,
CGM008,Info,A,A,2020/10/10 12:35,FreeStyle Libre Pro,0,5.7,
CGM008,Info,A,A,2020/10/10 12:50,FreeStyle Libre Pro,0,5.6,
CGM008,Info,A,A,2020/10/10 13:05,FreeStyle Libre Pro,0,5.2,
CGM008,Info,A,A,2020/10/10 13:20,FreeStyle Libre Pro,0,4.7,
CGM008,Info,A,A,2020/10/10 13:35,FreeStyle Libre Pro,0,4.6,
CGM008,Info,A,A,2020/10/10 13:50,FreeStyle Libre Pro,0,4.2,
CGM008,Info,A,A,2020/10/10 14:05,FreeStyle Libre Pro,0,4,
CGM008,Info,A,A,2020/10/10 14:20,FreeStyle Libre Pro,0,4.3,
CGM008,Info,A,A,2020/10/10 14:35,FreeStyle Libre Pro,0,4.3,
CGM008,Info,A,A,2020/10/10 14:50,FreeStyle Libre Pro,0,4.2,
CGM008,Info,A,A,2020/10/10 15:05,FreeStyle Libre Pro,0,4.1,
CGM008,Info,A,A,2020/10/10 15:20,FreeStyle Libre Pro,0,4,
CGM008,Info,A,A,2020/10/10 15:35,FreeStyle Libre Pro,0,4.5,
CGM008,Info,A,A,2020/10/10 15:50,FreeStyle Libre Pro,0,5.3,
CGM008,Info,A,A,2020/10/10 16:05,FreeStyle Libre Pro,0,6.6,
CGM008,Info,A,A,2020/10/10 16:20,FreeStyle Libre Pro,0,7.7,
CGM008,Info,A,A,2020/10/10 16:35,FreeStyle Libre Pro,0,7.8,
CGM008,Info,A,A,2020/10/10 16:50,FreeStyle Libre Pro,0,7.7,
CGM008,Info,A,A,2020/10/10 17:05,FreeStyle Libre Pro,0,8.3,
CGM008,Info,A,A,2020/10/10 17:20,FreeStyle Libre Pro,0,8.9,
CGM008,Info,A,A,2020/10/10 17:35,FreeStyle Libre Pro,0,9.4,
CGM008,Info,A,A,2020/10/10 17:50,FreeStyle Libre Pro,0,10.3,
CGM008,Info,A,A,2020/10/10 18:05,FreeStyle Libre Pro,0,10.4,
CGM008,Info,A,A,2020/10/10 18:20,FreeStyle Libre Pro,0,9.6,
CGM008,Info,A,A,2020/10/10 18:35,FreeStyle Libre Pro,0,8.5,
CGM008,Info,A,A,2020/10/10 18:50,FreeStyle Libre Pro,0,7.4,
CGM008,Info,A,A,2020/10/10 19:05,FreeStyle Libre Pro,0,7.3,
CGM008,Info,A,A,2020/10/10 19:20,FreeStyle Libre Pro,0,7.5,
CGM008,Info,A,A,2020/10/10 19:35,FreeStyle Libre Pro,0,7.4,
CGM008,Info,A,A,2020/10/10 19:50,FreeStyle Libre Pro,0,7.5,
CGM008,Info,A,A,2020/10/10 20:05,FreeStyle Libre Pro,0,7.7,
CGM008,Info,A,A,2020/10/10 20:20,FreeStyle Libre Pro,0,7.8,
CGM008,Info,A,A,2020/10/10 20:35,FreeStyle Libre Pro,0,8.1,
CGM008,Info,A,A,2020/10/10 20:50,FreeStyle Libre Pro,0,7.6,
CGM008,Info,A,A,2020/10/10 21:05,FreeStyle Libre Pro,0,6.5,
CGM008,Info,A,A,2020/10/10 21:20,FreeStyle Libre Pro,0,6.2,
CGM008,Info,A,A,2020/10/10 21:35,FreeStyle Libre Pro,0,6.6,
CGM008,Info,A,A,2020/10/10 21:50,FreeStyle Libre Pro,0,6.9,
CGM008,Info,A,A,2020/10/10 22:05,FreeStyle Libre Pro,0,7.2,
CGM008,Info,A,A,2020/10/10 22:20,FreeStyle Libre Pro,0,7.3,
CGM008,Info,A,A,2020/10/10 22:35,FreeStyle Libre Pro,0,7.5,
CGM008,Info,A,A,2020/10/10 22:50,FreeStyle Libre Pro,0,7.4,
CGM008,Info,A,A,2020/10/10 23:05,FreeStyle Libre Pro,0,7.5,
CGM008,Info,A,A,2020/10/10 23:20,FreeStyle Libre Pro,0,7.9,
CGM008,Info,A,A,2020/10/10 23:35,FreeStyle Libre Pro,0,8.1,
CGM008,Info,A,A,2020/10/10 23:50,FreeStyle Libre Pro,0,7.6,
CGM008,Info,A,A,2020/10/11 00:05,FreeStyle Libre Pro,0,7.3,
CGM008,Info,A,A,2020/10/11 00:20,FreeStyle Libre Pro,0,7.1,
CGM008,Info,A,A,2020/10/11 00:35,FreeStyle Libre Pro,0,6.8,
CGM008,Info,A,A,2020/10/11 00:50,FreeStyle Libre Pro,0,6.7,
CGM008,Info,A,A,2020/10/11 01:05,FreeStyle Libre Pro,0,6.4,
CGM008,Info,A,A,2020/10/11 01:20,FreeStyle Libre Pro,0,6.1,
CGM008,Info,A,A,2020/10/11 01:35,FreeStyle Libre Pro,0,6.1,
CGM008,Info,A,A,2020/10/11 01:50,FreeStyle Libre Pro,0,6.7,
CGM008,Info,A,A,2020/10/11 02:05,FreeStyle Libre Pro,0,7,
CGM008,Info,A,A,2020/10/11 02:20,FreeStyle Libre Pro,0,7.1,
CGM008,Info,A,A,2020/10/11 02:35,FreeStyle Libre Pro,0,7.3,
CGM008,Info,A,A,2020/10/11 02:50,FreeStyle Libre Pro,0,7.6,
CGM008,Info,A,A,2020/10/11 03:05,FreeStyle Libre Pro,0,8.2,
CGM008,Info,A,A,2020/10/11 03:20,FreeStyle Libre Pro,0,8.5,
CGM008,Info,A,A,2020/10/11 03:35,FreeStyle Libre Pro,0,8.7,
CGM008,Info,A,A,2020/10/11 03:50,FreeStyle Libre Pro,0,9,
CGM008,Info,A,A,2020/10/11 04:05,FreeStyle Libre Pro,0,9.3,
CGM008,Info,A,A,2020/10/11 04:20,FreeStyle Libre Pro,0,9.3,
CGM008,Info,A,A,2020/10/11 04:35,FreeStyle Libre Pro,0,9.4,
CGM008,Info,A,A,2020/10/11 04:50,FreeStyle Libre Pro,0,9.3,
CGM008,Info,A,A,2020/10/11 05:05,FreeStyle Libre Pro,0,8.6,
CGM008,Info,A,A,2020/10/11 05:20,FreeStyle Libre Pro,0,8.1,
CGM008,Info,A,A,2020/10/11 05:35,FreeStyle Libre Pro,0,7.7,
CGM008,Info,A,A,2020/10/11 05:50,FreeStyle Libre Pro,0,7.4,
CGM008,Info,A,A,2020/10/11 06:05,FreeStyle Libre Pro,0,7.7,
CGM008,Info,A,A,2020/10/11 06:20,FreeStyle Libre Pro,0,7.8,
CGM008,Info,A,A,2020/10/11 06:35,FreeStyle Libre Pro,0,7.3,
CGM008,Info,A,A,2020/10/11 06:50,FreeStyle Libre Pro,0,7.3,
CGM008,Info,A,A,2020/10/11 07:05,FreeStyle Libre Pro,0,7.6,
CGM008,Info,A,A,2020/10/11 07:20,FreeStyle Libre Pro,0,7.6,
CGM008,Info,A,A,2020/10/11 07:35,FreeStyle Libre Pro,0,7.4,
CGM008,Info,A,A,2020/10/11 07:50,FreeStyle Libre Pro,0,7.4,
CGM008,Info,A,A,2020/10/11 08:05,FreeStyle Libre Pro,0,7.6,
CGM008,Info,A,A,2020/10/11 08:20,FreeStyle Libre Pro,0,7.8,
CGM008,Info,A,A,2020/10/11 08:35,FreeStyle Libre Pro,0,8.3,
CGM008,Info,A,A,2020/10/11 08:50,FreeStyle Libre Pro,0,8.9,
CGM008,Info,A,A,2020/10/11 09:05,FreeStyle Libre Pro,0,8.7,
CGM008,Info,A,A,2020/10/11 09:20,FreeStyle Libre Pro,0,8.4,
CGM008,Info,A,A,2020/10/11 09:35,FreeStyle Libre Pro,0,8.4,
CGM008,Info,A,A,2020/10/11 09:50,FreeStyle Libre Pro,0,8.4,
CGM008,Info,A,A,2020/10/11 10:05,FreeStyle Libre Pro,0,8.2,
CGM008,Info,A,A,2020/10/11 10:20,FreeStyle Libre Pro,0,7.8,
CGM008,Info,A,A,2020/10/11 10:35,FreeStyle Libre Pro,0,7.8,
CGM008,Info,A,A,2020/10/11 10:50,FreeStyle Libre Pro,0,7.6,
CGM008,Info,A,A,2020/10/11 11:05,FreeStyle Libre Pro,0,7,
CGM008,Info,A,A,2020/10/11 11:20,FreeStyle Libre Pro,0,7.2,
CGM008,Info,A,A,2020/10/11 11:35,FreeStyle Libre Pro,0,7,
CGM008,Info,A,A,2020/10/11 11:50,FreeStyle Libre Pro,0,6.8,
CGM008,Info,A,A,2020/10/11 12:05,FreeStyle Libre Pro,0,6.8,
CGM008,Info,A,A,2020/10/11 12:20,FreeStyle Libre Pro,0,6.6,
CGM008,Info,A,A,2020/10/11 12:35,FreeStyle Libre Pro,0,6.6,
CGM008,Info,A,A,2020/10/11 12:50,FreeStyle Libre Pro,0,6.2,
CGM008,Info,A,A,2020/10/11 13:05,FreeStyle Libre Pro,0,5.9,
CGM008,Info,A,A,2020/10/11 13:20,FreeStyle Libre Pro,0,5.8,
CGM008,Info,A,A,2020/10/11 13:35,FreeStyle Libre Pro,0,5.3,
CGM008,Info,A,A,2020/10/11 13:50,FreeStyle Libre Pro,0,5.3,
CGM008,Info,A,A,2020/10/11 14:05,FreeStyle Libre Pro,0,5.1,
CGM008,Info,A,A,2020/10/11 14:20,FreeStyle Libre Pro,0,5.1,
CGM008,Info,A,A,2020/10/11 14:35,FreeStyle Libre Pro,0,5.3,
CGM008,Info,A,A,2020/10/11 14:50,FreeStyle Libre Pro,0,5.8,
CGM008,Info,A,A,2020/10/11 15:05,FreeStyle Libre Pro,0,6.3,
CGM008,Info,A,A,2020/10/11 15:20,FreeStyle Libre Pro,0,6.7,
CGM008,Info,A,A,2020/10/11 15:35,FreeStyle Libre Pro,0,6.9,
CGM008,Info,A,A,2020/10/11 15:50,FreeStyle Libre Pro,0,6.7,
CGM008,Info,A,A,2020/10/11 16:05,FreeStyle Libre Pro,0,6.4,
CGM008,Info,A,A,2020/10/11 16:20,FreeStyle Libre Pro,0,6.4,
CGM008,Info,A,A,2020/10/11 16:35,FreeStyle Libre Pro,0,6.3,
CGM008,Info,A,A,2020/10/11 16:50,FreeStyle Libre Pro,0,5.8,
CGM008,Info,A,A,2020/10/11 17:05,FreeStyle Libre Pro,0,5.7,
CGM008,Info,A,A,2020/10/11 17:20,FreeStyle Libre Pro,0,5.9,
CGM008,Info,A,A,2020/10/11 17:35,FreeStyle Libre Pro,0,5.8,
CGM008,Info,A,A,2020/10/11 17:50,FreeStyle Libre Pro,0,5.4,
CGM008,Info,A,A,2020/10/11 18:05,FreeStyle Libre Pro,0,5,
CGM008,Info,A,A,2020/10/11 18:20,FreeStyle Libre Pro,0,4.7,
CGM008,Info,A,A,2020/10/11 18:35,FreeStyle Libre Pro,0,4.6,
CGM008,Info,A,A,2020/10/11 18:50,FreeStyle Libre Pro,0,4.7,
CGM008,Info,A,A,2020/10/11 19:05,FreeStyle Libre Pro,0,5.2,
CGM008,Info,A,A,2020/10/11 19:20,FreeStyle Libre Pro,0,5.4,
CGM008,Info,A,A,2020/10/11 19:35,FreeStyle Libre Pro,0,5.2,
CGM008,Info,A,A,2020/10/11 19:50,FreeStyle Libre Pro,0,5.7,
CGM008,Info,A,A,2020/10/11 20:05,FreeStyle Libre Pro,0,6.2,
CGM008,Info,A,A,2020/10/11 20:20,FreeStyle Libre Pro,0,6.3,
CGM008,Info,A,A,2020/10/11 20:35,FreeStyle Libre Pro,0,6.4,
CGM008,Info,A,A,2020/10/11 20:50,FreeStyle Libre Pro,0,6.4,
CGM008,Info,A,A,2020/10/11 21:05,FreeStyle Libre Pro,0,6.1,
CGM008,Info,A,A,2020/10/11 21:20,FreeStyle Libre Pro,0,6.2,
CGM008,Info,A,A,2020/10/11 21:35,FreeStyle Libre Pro,0,6.9,
CGM008,Info,A,A,2020/10/11 21:50,FreeStyle Libre Pro,0,7.8,
CGM008,Info,A,A,2020/10/11 22:05,FreeStyle Libre Pro,0,8.3,
CGM008,Info,A,A,2020/10/11 22:20,FreeStyle Libre Pro,0,8.6,
CGM008,Info,A,A,2020/10/11 22:35,FreeStyle Libre Pro,0,8.8,
CGM008,Info,A,A,2020/10/11 22:50,FreeStyle Libre Pro,0,9.1,
CGM008,Info,A,A,2020/10/11 23:05,FreeStyle Libre Pro,0,9.4,
CGM008,Info,A,A,2020/10/11 23:20,FreeStyle Libre Pro,0,9.3,
CGM008,Info,A,A,2020/10/11 23:35,FreeStyle Libre Pro,0,8.8,
CGM008,Info,A,A,2020/10/11 23:50,FreeStyle Libre Pro,0,8.4,
CGM008,Info,A,A,2020/10/12 00:05,FreeStyle Libre Pro,0,7.8,
CGM008,Info,A,A,2020/10/12 00:20,FreeStyle Libre Pro,0,7.2,
CGM008,Info,A,A,2020/10/12 00:35,FreeStyle Libre Pro,0,7.1,
CGM008,Info,A,A,2020/10/12 00:50,FreeStyle Libre Pro,0,7.1,
CGM008,Info,A,A,2020/10/12 01:05,FreeStyle Libre Pro,0,6.7,
CGM008,Info,A,A,2020/10/12 01:20,FreeStyle Libre Pro,0,6.2,
CGM008,Info,A,A,2020/10/12 01:35,FreeStyle Libre Pro,0,6.1,
CGM008,Info,A,A,2020/10/12 01:50,FreeStyle Libre Pro,0,5.8,
CGM008,Info,A,A,2020/10/12 02:05,FreeStyle Libre Pro,0,5.5,
CGM008,Info,A,A,2020/10/12 02:20,FreeStyle Libre Pro,0,5.3,
CGM008,Info,A,A,2020/10/12 02:35,FreeStyle Libre Pro,0,5.2,
CGM008,Info,A,A,2020/10/12 02:50,FreeStyle Libre Pro,0,5.1,
CGM008,Info,A,A,2020/10/12 03:05,FreeStyle Libre Pro,0,5.1,
CGM008,Info,A,A,2020/10/12 03:20,FreeStyle Libre Pro,0,5,
CGM008,Info,A,A,2020/10/12 03:35,FreeStyle Libre Pro,0,4.9,
CGM008,Info,A,A,2020/10/12 03:50,FreeStyle Libre Pro,0,5.2,
CGM008,Info,A,A,2020/10/12 04:05,FreeStyle Libre Pro,0,5.2,
CGM008,Info,A,A,2020/10/12 04:20,FreeStyle Libre Pro,0,5.3,
CGM008,Info,A,A,2020/10/12 04:35,FreeStyle Libre Pro,0,5.7,
CGM008,Info,A,A,2020/10/12 04:50,FreeStyle Libre Pro,0,6.1,
CGM008,Info,A,A,2020/10/12 05:05,FreeStyle Libre Pro,0,6.2,
CGM008,Info,A,A,2020/10/12 05:20,FreeStyle Libre Pro,0,6.4,
CGM008,Info,A,A,2020/10/12 05:35,FreeStyle Libre Pro,0,6.7,
CGM008,Info,A,A,2020/10/12 05:50,FreeStyle Libre Pro,0,7.3,
CGM008,Info,A,A,2020/10/12 06:05,FreeStyle Libre Pro,0,7.6,
CGM008,Info,A,A,2020/10/12 06:20,FreeStyle Libre Pro,0,7.8,
CGM008,Info,A,A,2020/10/12 06:35,FreeStyle Libre Pro,0,8.2,
CGM008,Info,A,A,2020/10/12 06:50,FreeStyle Libre Pro,0,8.1,
CGM008,Info,A,A,2020/10/12 07:05,FreeStyle Libre Pro,0,7.8,
CGM008,Info,A,A,2020/10/12 07:20,FreeStyle Libre Pro,0,7.9,
CGM008,Info,A,A,2020/10/12 07:35,FreeStyle Libre Pro,0,8,
CGM008,Info,A,A,2020/10/12 07:50,FreeStyle Libre Pro,0,7.9,
CGM008,Info,A,A,2020/10/12 08:05,FreeStyle Libre Pro,0,8.5,
CGM008,Info,A,A,2020/10/12 08:20,FreeStyle Libre Pro,0,9.4,
CGM008,Info,A,A,2020/10/12 08:35,FreeStyle Libre Pro,0,9.7,
CGM008,Info,A,A,2020/10/12 08:50,FreeStyle Libre Pro,0,9.8,
CGM008,Info,A,A,2020/10/12 09:05,FreeStyle Libre Pro,0,9.8,
CGM008,Info,A,A,2020/10/12 09:20,FreeStyle Libre Pro,0,9.5,
CGM008,Info,A,A,2020/10/12 09:35,FreeStyle Libre Pro,0,9.1,
CGM008,Info,A,A,2020/10/12 09:50,FreeStyle Libre Pro,0,8.9,
CGM008,Info,A,A,2020/10/12 10:05,FreeStyle Libre Pro,0,8.9,
CGM008,Info,A,A,2020/10/12 10:20,FreeStyle Libre Pro,0,8.9,
CGM008,Info,A,A,2020/10/12 10:35,FreeStyle Libre Pro,0,8.6,
CGM008,Info,A,A,2020/10/12 10:50,FreeStyle Libre Pro,0,8.5,
CGM008,Info,A,A,2020/10/12 11:05,FreeStyle Libre Pro,0,8.4,
CGM008,Info,A,A,2020/10/12 11:20,FreeStyle Libre Pro,0,7.9,
CGM008,Info,A,A,2020/10/12 11:35,FreeStyle Libre Pro,0,7.6,
CGM008,Info,A,A,2020/10/12 11:50,FreeStyle Libre Pro,0,7.3,
CGM008,Info,A,A,2020/10/12 12:05,FreeStyle Libre Pro,0,6.8,
CGM008,Info,A,A,2020/10/12 12:20,FreeStyle Libre Pro,0,6.5,
CGM008,Info,A,A,2020/10/12 12:35,FreeStyle Libre Pro,0,6.4,
CGM008,Info,A,A,2020/10/12 12:50,FreeStyle Libre Pro,0,6.2,
CGM008,Info,A,A,2020/10/12 13:05,FreeStyle Libre Pro,0,6,
CGM008,Info,A,A,2020/10/12 13:20,FreeStyle Libre Pro,0,5.8,
CGM008,Info,A,A,2020/10/12 13:35,FreeStyle Libre Pro,0,5.7,
CGM008,Info,A,A,2020/10/12 13:50,FreeStyle Libre Pro,0,5.5,
CGM008,Info,A,A,2020/10/12 14:05,FreeStyle Libre Pro,0,5.7,
CGM008,Info,A,A,2020/10/12 14:20,FreeStyle Libre Pro,0,5.8,
CGM008,Info,A,A,2020/10/12 14:35,FreeStyle Libre Pro,0,5.7,
CGM008,Info,A,A,2020/10/12 14:50,FreeStyle Libre Pro,0,5.8,
CGM008,Info,A,A,2020/10/12 15:05,FreeStyle Libre Pro,0,5.7,
CGM008,Info,A,A,2020/10/12 15:20,FreeStyle Libre Pro,0,5.6,
CGM008,Info,A,A,2020/10/12 15:35,FreeStyle Libre Pro,0,5.3,
CGM008,Info,A,A,2020/10/12 15:50,FreeStyle Libre Pro,0,5.2,
CGM008,Info,A,A,2020/10/12 16:05,FreeStyle Libre Pro,0,5.4,
CGM008,Info,A,A,2020/10/12 16:20,FreeStyle Libre Pro,0,6.4,
CGM008,Info,A,A,2020/10/12 16:35,FreeStyle Libre Pro,0,7.2,
CGM008,Info,A,A,2020/10/12 16:50,FreeStyle Libre Pro,0,6.8,
CGM008,Info,A,A,2020/10/12 17:05,FreeStyle Libre Pro,0,6.7,
CGM008,Info,A,A,2020/10/12 17:20,FreeStyle Libre Pro,0,7.3,
CGM008,Info,A,A,2020/10/12 17:35,FreeStyle Libre Pro,0,7.2,
CGM008,Info,A,A,2020/10/12 17:50,FreeStyle Libre Pro,0,7.3,
CGM008,Info,A,A,2020/10/12 18:05,FreeStyle Libre Pro,0,7.7,
CGM008,Info,A,A,2020/10/12 18:20,FreeStyle Libre Pro,0,7.9,
CGM008,Info,A,A,2020/10/12 18:35,FreeStyle Libre Pro,0,7.9,
CGM008,Info,A,A,2020/10/12 18:50,FreeStyle Libre Pro,0,7.7,
CGM008,Info,A,A,2020/10/12 19:05,FreeStyle Libre Pro,0,7.3,
CGM008,Info,A,A,2020/10/12 19:20,FreeStyle Libre Pro,0,6.8,
CGM008,Info,A,A,2020/10/12 19:35,FreeStyle Libre Pro,0,6.4,
CGM008,Info,A,A,2020/10/12 19:50,FreeStyle Libre Pro,0,6.1,
CGM008,Info,A,A,2020/10/12 20:05,FreeStyle Libre Pro,0,6.3,
CGM008,Info,A,A,2020/10/12 20:20,FreeStyle Libre Pro,0,7,
CGM008,Info,A,A,2020/10/12 20:35,FreeStyle Libre Pro,0,6.9,
CGM008,Info,A,A,2020/10/12 20:50,FreeStyle Libre Pro,0,6.5,
CGM008,Info,A,A,2020/10/12 21:05,FreeStyle Libre Pro,0,6.7,
CGM008,Info,A,A,2020/10/12 21:20,FreeStyle Libre Pro,0,6.8,
CGM008,Info,A,A,2020/10/12 21:35,FreeStyle Libre Pro,0,6.7,
CGM008,Info,A,A,2020/10/12 21:50,FreeStyle Libre Pro,0,6.5,
CGM008,Info,A,A,2020/10/12 22:05,FreeStyle Libre Pro,0,6.2,
CGM008,Info,A,A,2020/10/12 22:20,FreeStyle Libre Pro,0,5.9,
CGM008,Info,A,A,2020/10/12 22:35,FreeStyle Libre Pro,0,5.8,
CGM008,Info,A,A,2020/10/12 22:50,FreeStyle Libre Pro,0,5.8,
CGM008,Info,A,A,2020/10/12 23:05,FreeStyle Libre Pro,0,5.8,
CGM008,Info,A,A,2020/10/12 23:20,FreeStyle Libre Pro,0,5.8,
CGM008,Info,A,A,2020/10/12 23:35,FreeStyle Libre Pro,0,5.7,
CGM008,Info,A,A,2020/10/12 23:50,FreeStyle Libre Pro,0,5.8,
CGM008,Info,A,A,2020/10/13 00:05,FreeStyle Libre Pro,0,5.9,
CGM008,Info,A,A,2020/10/13 00:20,FreeStyle Libre Pro,0,6,
CGM008,Info,A,A,2020/10/13 00:35,FreeStyle Libre Pro,0,6,
CGM008,Info,A,A,2020/10/13 00:50,FreeStyle Libre Pro,0,5.9,
CGM008,Info,A,A,2020/10/13 01:05,FreeStyle Libre Pro,0,5.9,
CGM008,Info,A,A,2020/10/13 01:20,FreeStyle Libre Pro,0,6.1,
CGM008,Info,A,A,2020/10/13 01:35,FreeStyle Libre Pro,0,6.1,
CGM008,Info,A,A,2020/10/13 01:50,FreeStyle Libre Pro,0,6.1,
CGM008,Info,A,A,2020/10/13 02:05,FreeStyle Libre Pro,0,6.3,
CGM008,Info,A,A,2020/10/13 02:20,FreeStyle Libre Pro,0,6.7,
CGM008,Info,A,A,2020/10/13 02:35,FreeStyle Libre Pro,0,7.1,
CGM008,Info,A,A,2020/10/13 02:50,FreeStyle Libre Pro,0,7.1,
CGM008,Info,A,A,2020/10/13 03:05,FreeStyle Libre Pro,0,7.2,
CGM008,Info,A,A,2020/10/13 03:20,FreeStyle Libre Pro,0,7.4,
CGM008,Info,A,A,2020/10/13 03:35,FreeStyle Libre Pro,0,7.4,
CGM008,Info,A,A,2020/10/13 03:50,FreeStyle Libre Pro,0,7.5,
CGM008,Info,A,A,2020/10/13 04:05,FreeStyle Libre Pro,0,7.7,
CGM008,Info,A,A,2020/10/13 04:20,FreeStyle Libre Pro,0,7.7,
CGM008,Info,A,A,2020/10/13 04:35,FreeStyle Libre Pro,0,7.8,
CGM008,Info,A,A,2020/10/13 04:50,FreeStyle Libre Pro,0,7.8,
CGM008,Info,A,A,2020/10/13 05:05,FreeStyle Libre Pro,0,8.1,
CGM008,Info,A,A,2020/10/13 05:20,FreeStyle Libre Pro,0,8.9,
CGM008,Info,A,A,2020/10/13 05:35,FreeStyle Libre Pro,0,9.2,
CGM008,Info,A,A,2020/10/13 05:50,FreeStyle Libre Pro,0,9.4,
CGM008,Info,A,A,2020/10/13 06:05,FreeStyle Libre Pro,0,9.7,
CGM008,Info,A,A,2020/10/13 06:20,FreeStyle Libre Pro,0,9.7,
CGM008,Info,A,A,2020/10/13 06:35,FreeStyle Libre Pro,0,9.7,
CGM008,Info,A,A,2020/10/13 06:50,FreeStyle Libre Pro,0,10.1,
CGM008,Info,A,A,2020/10/13 07:05,FreeStyle Libre Pro,0,10.6,
CGM008,Info,A,A,2020/10/13 07:20,FreeStyle Libre Pro,0,11,
CGM008,Info,A,A,2020/10/13 07:35,FreeStyle Libre Pro,0,11.2,
CGM008,Info,A,A,2020/10/13 07:50,FreeStyle Libre Pro,0,11.4,
CGM008,Info,A,A,2020/10/13 08:05,FreeStyle Libre Pro,0,11.9,
CGM008,Info,A,A,2020/10/13 08:20,FreeStyle Libre Pro,0,11.8,
CGM008,Info,A,A,2020/10/13 08:35,FreeStyle Libre Pro,0,11.3,
CGM008,Info,A,A,2020/10/13 08:50,FreeStyle Libre Pro,0,10.7,
CGM008,Info,A,A,2020/10/13 09:05,FreeStyle Libre Pro,0,10.2,
CGM008,Info,A,A,2020/10/13 09:20,FreeStyle Libre Pro,0,9.6,
CGM008,Info,A,A,2020/10/13 09:35,FreeStyle Libre Pro,0,8.8,
CGM008,Info,A,A,2020/10/13 09:50,FreeStyle Libre Pro,0,8.4,
CGM008,Info,A,A,2020/10/13 10:05,FreeStyle Libre Pro,0,8.1,
CGM008,Info,A,A,2020/10/13 10:20,FreeStyle Libre Pro,0,7.7,
CGM008,Info,A,A,2020/10/13 10:35,FreeStyle Libre Pro,0,7.3,
CGM008,Info,A,A,2020/10/13 10:50,FreeStyle Libre Pro,0,7.2,
CGM008,Info,A,A,2020/10/13 11:05,FreeStyle Libre Pro,0,7.6,
CGM008,Info,A,A,2020/10/13 11:20,FreeStyle Libre Pro,0,7.9,
CGM008,Info,A,A,2020/10/13 11:35,FreeStyle Libre Pro,0,7.7,
CGM008,Info,A,A,2020/10/13 11:50,FreeStyle Libre Pro,0,7.4,
CGM008,Info,A,A,2020/10/13 12:05,FreeStyle Libre Pro,0,7.1,
CGM008,Info,A,A,2020/10/13 12:20,FreeStyle Libre Pro,0,6.8,
CGM008,Info,A,A,2020/10/13 12:35,FreeStyle Libre Pro,0,6.8,
CGM008,Info,A,A,2020/10/13 12:50,FreeStyle Libre Pro,0,6.6,
CGM008,Info,A,A,2020/10/13 13:05,FreeStyle Libre Pro,0,6.4,
CGM008,Info,A,A,2020/10/13 13:20,FreeStyle Libre Pro,0,6.4,
CGM008,Info,A,A,2020/10/13 13:35,FreeStyle Libre Pro,0,6.4,
CGM008,Info,A,A,2020/10/13 13:50,FreeStyle Libre Pro,0,6.4,
CGM008,Info,A,A,2020/10/13 14:05,FreeStyle Libre Pro,0,6.8,
CGM008,Info,A,A,2020/10/13 14:20,FreeStyle Libre Pro,0,7.6,
CGM008,Info,A,A,2020/10/13 14:35,FreeStyle Libre Pro,0,8,
CGM008,Info,A,A,2020/10/13 14:50,FreeStyle Libre Pro,0,7.8,
CGM008,Info,A,A,2020/10/13 15:05,FreeStyle Libre Pro,0,7.6,
CGM008,Info,A,A,2020/10/13 15:20,FreeStyle Libre Pro,0,7.5,
CGM008,Info,A,A,2020/10/13 15:35,FreeStyle Libre Pro,0,7.2,
CGM008,Info,A,A,2020/10/13 15:50,FreeStyle Libre Pro,0,6.6,
CGM008,Info,A,A,2020/10/13 16:05,FreeStyle Libre Pro,0,6.3,
CGM008,Info,A,A,2020/10/13 16:20,FreeStyle Libre Pro,0,6.4,
CGM008,Info,A,A,2020/10/13 16:35,FreeStyle Libre Pro,0,6.3,
CGM008,Info,A,A,2020/10/13 16:50,FreeStyle Libre Pro,0,5.9,
CGM008,Info,A,A,2020/10/13 17:05,FreeStyle Libre Pro,0,5.6,
CGM008,Info,A,A,2020/10/13 17:20,FreeStyle Libre Pro,0,5.4,